Date String (YYYY-MM-DD hh:mm:ss) UTC,Instrument flags,absolute air pressure of the measurement (hPa),sample flow rate (lpm),inlet stack bypass flow (lpm),air temperature of the measurement (°C),ambient temperature measured by the external sensor (°C),aerosol sample conditioner tube jacket temperature (°C),OPC LED temperature (°C),internal box temperature (°C),relative humidity of the measurement (%),span deviation,mass concentration of particles derived from Lorenz-Mie calculation of OPC scattering (μg/m³),mass concentration of particles derived from Lorenz-Mie calculation of OPC scattering (μg/m³),mass concentration of particles derived from Lorenz-Mie calculation of OPC scattering (μg/m³)
DateTimeUTC,F1_M11,P_M11,Q1_M11,Q2_M11,T1_M11,T2_M11,T3_M11,T4_M11,T5_M11,U1_M11,ZSPAN_M11,X2_M11,X0_M11,X1_M11
2024-01-03 19:00:00,SystemResetWarning,0828.4,5.00,000.00,022.0,021.5,000.0,030.2,023.5,13.1,0004.2,0007.96,0013.85,0007.29
2024-01-03 19:01:00,SystemResetWarning,0828.4,4.99,000.00,022.0,021.5,000.0,030.2,023.6,13.1,0003.6,0007.90,0013.79,0007.24
2024-01-03 19:02:00,SystemResetWarning,0828.4,5.00,000.00,022.1,021.5,000.0,030.2,023.6,13.1,0003.3,0007.89,0013.77,0007.22
2024-01-03 19:03:00,SystemResetWarning,0828.4,5.00,000.00,022.1,021.5,000.0,030.2,023.6,13.2,0002.8,0007.87,0013.93,0007.19
2024-01-03 19:04:00,SystemResetWarning,0828.4,4.99,000.00,022.1,021.6,000.0,030.2,023.7,13.3,0003.1,0007.85,0014.38,0007.17
2024-01-03 19:05:00,SystemResetWarning,0828.4,5.01,000.00,022.1,021.6,000.0,030.3,023.7,13.2,0003.7,0007.79,0013.88,0007.13
2024-01-03 19:06:00,SystemResetWarning,0828.4,5.00,000.00,022.2,021.6,000.0,030.3,023.7,13.3,0003.8,0007.73,0013.38,0007.08
2024-01-03 19:07:00,SystemResetWarning,0828.4,5.01,000.00,022.2,021.6,000.0,030.3,023.7,13.1,0003.9,0007.68,0013.30,0007.04
2024-01-03 19:08:00,SystemResetWarning,0828.4,5.00,000.00,022.2,021.6,000.0,030.3,023.7,13.0,0003.5,0007.64,0013.20,0007.00
2024-01-03 19:09:00,SystemResetWarning,0828.3,5.01,000.00,022.2,021.7,000.0,030.3,023.7,12.9,0003.3,0007.56,0011.94,0006.95
2024-01-03 19:10:00,SystemResetWarning,0828.3,5.00,000.00,022.2,021.7,000.0,030.4,023.7,12.8,0003.7,0007.53,0011.91,0006.93
2024-01-03 19:11:00,SystemResetWarning,0828.3,5.00,000.00,022.2,021.7,000.0,030.4,023.7,12.9,0004.1,0007.52,0012.01,0006.91
2024-01-03 19:12:00,SystemResetWarning,0828.3,4.99,000.00,022.2,021.7,000.0,030.4,023.7,12.9,0004.2,0007.50,0012.14,0006.89
2024-01-03 19:13:00,SystemResetWarning,0828.3,5.00,000.00,022.2,021.7,000.0,030.4,023.8,13.0,0004.4,0007.50,0012.35,0006.87
2024-01-03 19:14:00,SystemResetWarning,0828.3,4.99,000.00,022.3,021.7,000.0,030.4,023.8,13.0,0004.7,0007.47,0012.37,0006.84
2024-01-03 19:15:00,SystemResetWarning,0828.3,5.00,000.00,022.3,021.7,000.0,030.4,023.8,13.0,0005.1,0007.42,0012.52,0006.82
2024-01-03 19:16:00,SystemResetWarning,0828.2,5.01,000.00,022.3,021.7,000.0,030.4,023.8,12.9,0005.1,0007.39,0012.45,0006.81
2024-01-03 19:17:00,SystemResetWarning,0828.3,5.01,000.00,022.3,021.7,000.0,030.5,023.8,13.0,0005.3,0007.40,0012.80,0006.83
2024-01-03 19:18:00,SystemResetWarning,0828.2,5.00,000.00,022.3,021.8,000.0,030.5,023.8,12.9,0005.3,0007.44,0013.00,0006.86
2024-01-03 19:19:00,SystemResetWarning,0828.2,5.00,000.00,022.3,021.8,000.0,030.5,023.9,12.8,0005.4,0007.44,0012.65,0006.87
2024-01-03 19:20:00,SystemResetWarning,0828.1,5.00,000.00,022.3,021.8,000.0,030.5,023.9,12.9,0005.5,0007.42,0012.64,0006.88
2024-01-03 19:21:00,SystemResetWarning,0828.0,5.00,000.00,022.4,021.8,000.0,030.5,023.9,12.9,0004.9,0007.38,0012.80,0006.89
2024-01-03 19:22:00,SystemResetWarning,0828.1,5.00,000.00,022.4,021.8,000.0,030.5,023.9,12.9,0004.9,0007.41,0012.94,0006.90
2024-01-03 19:23:00,SystemResetWarning,0828.0,5.00,000.00,022.4,021.9,000.0,030.6,024.0,13.0,0005.2,0007.41,0013.33,0006.91
2024-01-03 19:24:00,SystemResetWarning,0828.1,5.00,000.00,022.4,021.9,000.0,030.6,024.0,13.0,0005.1,0007.39,0013.07,0006.93
2024-01-03 19:25:00,SystemResetWarning,0828.1,5.01,000.00,022.5,021.9,000.0,030.6,024.0,12.9,0005.1,0007.40,0012.98,0006.95
2024-01-03 19:26:00,SystemResetWarning,0828.0,5.01,000.00,022.5,021.9,000.0,030.6,024.0,12.9,0004.8,0007.37,0012.17,0006.96
2024-01-03 19:27:00,SystemResetWarning,0828.0,5.00,000.00,022.5,022.0,000.0,030.6,024.1,12.9,0004.5,0007.37,0012.08,0006.97
2024-01-03 19:28:00,SystemResetWarning,0828.0,4.99,000.00,022.5,022.0,000.0,030.6,024.1,12.9,0004.4,0007.39,0012.18,0006.97
2024-01-03 19:29:00,SystemResetWarning,0827.9,4.99,000.00,022.5,022.0,000.0,030.7,024.1,12.4,0004.5,0007.40,0012.13,0006.96
2024-01-03 19:30:00,SystemResetWarning,0828.0,5.01,000.00,022.6,022.0,000.0,030.7,024.1,12.4,0004.6,0007.43,0012.00,0006.98
2024-01-03 19:31:00,SystemResetWarning,0828.0,5.01,000.00,022.6,022.0,000.0,030.7,024.1,12.2,0004.6,0007.49,0011.95,0007.02
2024-01-03 19:32:00,SystemResetWarning,0827.8,5.00,000.00,022.6,022.0,000.0,030.7,024.1,12.2,0005.0,0007.60,0011.97,0007.08
2024-01-03 19:33:00,SystemResetWarning,0827.8,5.00,000.00,022.6,022.1,000.0,030.7,024.1,12.2,0005.2,0007.64,0012.10,0007.14
2024-01-03 19:34:00,SystemResetWarning,0827.8,4.99,000.00,022.6,022.1,000.0,030.8,024.1,12.2,0004.4,0007.69,0011.63,0007.19
2024-01-03 19:35:00,SystemResetWarning,0827.8,4.99,000.00,022.6,022.1,000.0,030.8,024.1,12.3,0004.9,0007.75,0012.24,0007.23
2024-01-03 19:36:00,SystemResetWarning,0827.8,5.01,000.00,022.6,022.1,000.0,030.8,024.1,12.2,0004.5,0007.77,0012.89,0007.25
2024-01-03 19:37:00,SystemResetWarning,0827.8,5.01,000.00,022.6,022.1,000.0,030.8,024.1,12.1,0003.6,0007.82,0012.99,0007.30
2024-01-03 19:38:00,SystemResetWarning,0827.8,4.99,000.00,022.7,022.1,000.0,030.8,024.1,12.1,0003.9,0007.84,0012.98,0007.33
2024-01-03 19:39:00,SystemResetWarning,0827.8,5.00,000.00,022.7,022.1,000.0,030.8,024.1,12.1,0004.0,0007.83,0012.86,0007.35
2024-01-03 19:40:00,SystemResetWarning,0827.9,5.00,000.00,022.7,022.1,000.0,030.8,024.1,12.3,0004.1,0007.89,0013.16,0007.40
2024-01-03 19:41:00,SystemResetWarning,0827.8,5.00,000.00,022.7,022.1,000.0,030.9,024.1,12.1,0004.6,0007.95,0013.74,0007.47
2024-01-03 19:42:00,SystemResetWarning,0827.8,5.00,000.00,022.7,022.2,000.0,030.9,024.2,12.2,0004.5,0008.01,0014.11,0007.52
2024-01-03 19:43:00,SystemResetWarning,0827.8,5.00,000.00,022.7,022.2,000.0,030.9,024.2,12.2,0004.5,0008.02,0013.88,0007.56
2024-01-03 19:44:00,SystemResetWarning,0827.8,5.00,000.00,022.7,022.2,000.0,030.9,024.2,12.2,0004.2,0008.07,0013.61,0007.61
2024-01-03 19:45:00,SystemResetWarning,0827.8,5.00,000.00,022.8,022.2,000.0,030.9,024.2,12.2,0004.6,0008.14,0014.52,0007.66
2024-01-03 19:46:00,SystemResetWarning,0827.8,5.00,000.00,022.8,022.2,000.0,030.9,024.2,12.2,0004.6,0008.19,0014.46,0007.72
2024-01-03 19:47:00,SystemResetWarning,0827.7,5.00,000.00,022.8,022.2,000.0,030.9,024.2,12.2,0004.9,0008.29,0014.51,0007.80
2024-01-03 19:48:00,SystemResetWarning,0827.7,5.01,000.00,022.8,022.2,000.0,031.0,024.2,12.3,0005.3,0008.36,0014.85,0007.85
2024-01-03 19:49:00,SystemResetWarning,0827.7,5.00,000.00,022.8,022.2,000.0,031.0,024.2,12.3,0005.2,0008.44,0016.01,0007.91
2024-01-03 19:50:00,SystemResetWarning,0827.7,5.00,000.00,022.8,022.2,000.0,031.0,024.3,12.4,0005.2,0008.51,0016.02,0007.98
2024-01-03 19:51:00,SystemResetWarning,0827.7,5.00,000.00,022.8,022.2,000.0,031.0,024.2,12.2,0005.5,0008.57,0015.92,0008.03
2024-01-03 19:52:00,SystemResetWarning,0827.7,5.00,000.00,022.8,022.2,000.0,031.0,024.2,12.1,0005.3,0008.62,0016.34,0008.07
2024-01-03 19:53:00,SystemResetWarning,0827.7,4.99,000.00,022.8,022.3,000.0,031.0,024.2,12.0,0005.4,0008.65,0016.83,0008.10
2024-01-03 19:54:00,SystemResetWarning,0827.7,5.00,000.00,022.9,022.3,000.0,031.0,024.3,12.0,0005.5,0008.73,0017.14,0008.14
2024-01-03 19:55:00,SystemResetWarning,0827.6,5.00,000.00,022.9,022.3,000.0,031.0,024.3,12.0,0005.5,0008.78,0017.75,0008.17
2024-01-03 19:56:00,SystemResetWarning,0827.6,5.00,000.00,022.9,022.3,000.0,031.0,024.3,12.0,0005.3,0008.84,0017.74,0008.21
2024-01-03 19:57:00,SystemResetWarning,0827.6,5.00,000.00,022.9,022.3,000.0,031.1,024.4,12.2,0005.1,0008.96,0018.38,0008.28
2024-01-03 19:58:00,SystemResetWarning,0827.6,5.00,000.00,022.9,022.3,000.0,031.1,024.3,12.2,0005.0,0009.03,0017.77,0008.34
2024-01-03 19:59:00,SystemResetWarning,0827.5,5.00,000.00,022.9,022.3,000.0,031.1,024.3,12.1,0004.9,0009.12,0017.70,0008.42
